| time (UTC) | temp F | wind direction | speed MPH | gust MPH | rain 1hr in | rain 24hr in | rain mn in | humidity % | barometer mb |
| 20260904044543 | 65 | 231 | 19.0 | 31.0 | 0.01 | 0.02 | 0.01 | 95 | 1015.6 |
| 20260904043052 | 65 | 233 | 20.0 | 28.0 | 0.01 | 0.02 | 0.01 | 94 | 1015.6 |
| 20260904041540 | 65 | 233 | 20.0 | 29.0 | 0.00 | 0.01 | 0.00 | 94 | 1015.7 |
| 20260904040039 | 65 | 231 | 21.0 | 28.0 | 0.00 | 0.01 | 0.00 | 94 | 1015.7 |
| 20260904034538 | 65 | 231 | 20.0 | 26.0 | 0.00 | 0.02 | 0.00 | 93 | 1015.7 |
| 20260904033035 | 66 | 224 | 20.0 | 27.0 | 0.00 | 0.02 | 0.00 | 92 | 1015.6 |
| 20260904031530 | 66 | 233 | 21.0 | 28.0 | 0.00 | 0.02 | 0.00 | 92 | 1015.6 |
| 20260904030035 | 66 | 231 | 20.0 | 29.0 | 0.00 | 0.02 | 0.00 | 92 | 1015.6 |
| 20260904024523 | 66 | 233 | 21.0 | 29.0 | 0.00 | 0.02 | 0.00 | 93 | 1015.8 |
| 20260904023017 | 65 | 203 | 18.0 | 26.0 | 0.00 | 0.02 | 0.00 | 93 | 1016.0 |
| 20260904021515 | 65 | 233 | 20.0 | 26.0 | 0.00 | 0.02 | 0.00 | 93 | 1016.1 |
| 20260904020011 | 65 | 227 | 16.0 | 26.0 | 0.00 | 0.02 | 0.00 | 93 | 1016.3 |
| 20260904014512 | 65 | 233 | 20.0 | 29.0 | 0.00 | 0.02 | 0.00 | 93 | 1016.4 |
| 20260904013003 | 65 | 226 | 19.0 | 28.0 | 0.00 | 0.02 | 0.00 | 93 | 1016.7 |
| 20260904011502 | 65 | 238 | 18.0 | 27.0 | 0.00 | 0.02 | 0.00 | 94 | 1016.8 |
| 20260904010006 | 65 | 229 | 18.0 | 25.0 | 0.00 | 0.02 | 0.00 | 93 | 1016.8 |
| 20260904004600 | 65 | 239 | 18.0 | 29.0 | 0.00 | 0.02 | 0.00 | 94 | 1016.7 |
| 20260904003059 | 65 | 214 | 19.0 | 29.0 | 0.00 | 0.02 | 0.00 | 94 | 1016.8 |
| 20260904001557 | 65 | 214 | 21.0 | 29.0 | 0.00 | 0.02 | 0.00 | 94 | 1016.9 |
| 20260904000056 | 65 | 222 | 17.0 | 25.0 | 0.00 | 0.02 | 0.00 | 94 | 1016.9 |
| 20260903234554 | 65 | 220 | 18.0 | 25.0 | 0.00 | 0.02 | 0.00 | 94 | 1017.0 |
| 20260903233054 | 65 | 233 | 19.0 | 30.0 | 0.00 | 0.02 | 0.00 | 94 | 1017.1 |
| 20260903231552 | 65 | 227 | 19.0 | 29.0 | 0.00 | 0.02 | 0.00 | 94 | 1017.2 |
| 20260903230051 | 65 | 198 | 18.0 | 26.0 | 0.00 | 0.02 | 0.00 | 94 | 1017.3 |
| 20260903224547 | 65 | 219 | 19.0 | 26.0 | 0.00 | 0.02 | 0.02 | 94 | 1017.3 |
| 20260903223046 | 65 | 217 | 19.0 | 26.0 | 0.00 | 0.02 | 0.02 | 94 | 1017.5 |
| 20260903221544 | 65 | 212 | 18.0 | 27.0 | 0.00 | 0.02 | 0.02 | 94 | 1017.6 |
| 20260903220045 | 65 | 224 | 20.0 | 25.0 | 0.00 | 0.02 | 0.02 | 94 | 1018.0 |
| 20260903214538 | 65 | 215 | 17.0 | 25.0 | 0.00 | 0.02 | 0.02 | 94 | 1018.1 |
| 20260903213037 | 65 | 210 | 18.0 | 25.0 | 0.00 | 0.02 | 0.02 | 94 | 1018.2 |
| 20260903211544 | 65 | 217 | 17.0 | 24.0 | 0.00 | 0.02 | 0.02 | 94 | 1018.2 |
| 20260903210040 | 65 | 210 | 17.0 | 24.0 | 0.00 | 0.02 | 0.02 | 94 | 1018.2 |
| 20260903204531 | 65 | 215 | 16.0 | 25.0 | 0.00 | 0.02 | 0.02 | 94 | 1018.3 |
| 20260903203128 | 65 | 224 | 17.0 | 24.0 | 0.00 | 0.02 | 0.02 | 94 | 1018.5 |
| 20260903201527 | 65 | 217 | 16.0 | 22.0 | 0.00 | 0.02 | 0.02 | 94 | 1018.7 |
| 20260903200026 | 65 | 224 | 17.0 | 25.0 | 0.00 | 0.02 | 0.02 | 94 | 1018.7 |
| 20260903194533 | 65 | 210 | 16.0 | 23.0 | 0.00 | 0.02 | 0.02 | 94 | 1018.8 |
| 20260903193025 | 65 | 222 | 15.0 | 23.0 | 0.00 | 0.02 | 0.02 | 94 | 1018.8 |
| 20260903191530 | 64 | 217 | 16.0 | 22.0 | 0.00 | 0.02 | 0.02 | 94 | 1018.7 |
| 20260903190021 | 65 | 221 | 14.0 | 22.0 | 0.00 | 0.02 | 0.02 | 93 | 1018.8 |
| 20260903184520 | 65 | 220 | 16.0 | 28.0 | 0.00 | 0.02 | 0.02 | 94 | 1018.9 |
| 20260903183018 | 65 | 231 | 15.0 | 21.0 | 0.00 | 0.02 | 0.02 | 93 | 1019.1 |
| 20260903181515 | 65 | 227 | 15.0 | 24.0 | 0.00 | 0.02 | 0.02 | 93 | 1019.2 |
| 20260903180021 | 65 | 229 | 17.0 | 21.0 | 0.00 | 0.02 | 0.02 | 93 | 1019.4 |
| 20260903174519 | 65 | 219 | 14.0 | 22.0 | 0.00 | 0.02 | 0.02 | 93 | 1019.6 |
| 20260903173013 | 66 | 212 | 14.0 | 22.0 | 0.00 | 0.02 | 0.02 | 92 | 1019.6 |
| 20260903171514 | 66 | 217 | 15.0 | 23.0 | 0.00 | 0.02 | 0.02 | 92 | 1019.6 |
| 20260903170010 | 66 | 226 | 16.0 | 22.0 | 0.00 | 0.02 | 0.02 | 91 | 1019.8 |
| 20260903164510 | 67 | 231 | 15.0 | 22.0 | 0.00 | 0.02 | 0.02 | 90 | 1019.8 |
| 20260903163009 | 67 | 215 | 13.0 | 22.0 | 0.00 | 0.02 | 0.02 | 89 | 1019.9 |
| 20260903161509 | 68 | 222 | 14.0 | 24.0 | 0.00 | 0.02 | 0.02 | 87 | 1020.0 |
| 20260903160007 | 69 | 219 | 15.0 | 22.0 | 0.00 | 0.02 | 0.02 | 88 | 1019.9 |
| 20260903154508 | 69 | 231 | 17.0 | 24.0 | 0.00 | 0.02 | 0.02 | 86 | 1020.0 |
| 20260903153006 | 68 | 248 | 15.0 | 23.0 | 0.00 | 0.02 | 0.02 | 91 | 1020.2 |
| 20260903151505 | 68 | 233 | 16.0 | 23.0 | 0.00 | 0.02 | 0.02 | 89 | 1020.5 |
| 20260903150005 | 69 | 222 | 13.0 | 22.0 | 0.00 | 0.02 | 0.02 | 86 | 1020.5 |
| 20260903144504 | 70 | 231 | 15.0 | 27.0 | 0.00 | 0.02 | 0.02 | 87 | 1020.5 |
| 20260903143003 | 71 | 219 | 14.0 | 22.0 | 0.00 | 0.02 | 0.02 | 85 | 1020.5 |
| 20260903141501 | 69 | 224 | 14.0 | 21.0 | 0.00 | 0.02 | 0.02 | 87 | 1020.4 |
| 20260903140112 | 70 | 252 | 15.0 | 23.0 | 0.00 | 0.02 | 0.02 | 87 | 1020.7 |
| 20260903134601 | 70 | 240 | 14.0 | 23.0 | 0.00 | 0.02 | 0.02 | 87 | 1020.5 |
| 20260903133100 | 71 | 221 | 13.0 | 20.0 | 0.00 | 0.02 | 0.02 | 86 | 1020.7 |
| 20260903131606 | 69 | 224 | 14.0 | 22.0 | 0.00 | 0.02 | 0.02 | 88 | 1020.8 |
| 20260903130056 | 69 | 226 | 14.0 | 21.0 | 0.00 | 0.02 | 0.02 | 89 | 1020.8 |
| 20260903124607 | 68 | 214 | 13.0 | 19.0 | 0.00 | 0.02 | 0.02 | 88 | 1021.0 |
| 20260903123054 | 71 | 219 | 11.0 | 18.0 | 0.00 | 0.02 | 0.02 | 85 | 1020.9 |
| 20260903121551 | 71 | 217 | 12.0 | 20.0 | 0.00 | 0.02 | 0.02 | 87 | 1020.8 |
| 20260903120100 | 70 | 224 | 12.0 | 18.0 | 0.00 | 0.02 | 0.02 | 87 | 1020.7 |
| 20260903114551 | 71 | 219 | 11.0 | 16.0 | 0.00 | 0.02 | 0.02 | 85 | 1020.8 |
| 20260903113055 | 70 | 222 | 12.0 | 18.0 | 0.00 | 0.02 | 0.02 | 86 | 1020.8 |
| 20260903111648 | 71 | 224 | 13.0 | 18.0 | 0.00 | 0.02 | 0.02 | 85 | 1020.8 |
| 20260903110048 | 70 | 217 | 11.0 | 18.0 | 0.00 | 0.02 | 0.02 | 88 | 1020.9 |
| 20260903104548 | 70 | 236 | 9.0 | 17.0 | 0.00 | 0.03 | 0.02 | 89 | 1020.8 |
| 20260903103041 | 69 | 219 | 11.0 | 16.0 | 0.00 | 0.03 | 0.02 | 92 | 1020.7 |
| 20260903101545 | 67 | 227 | 13.0 | 19.0 | 0.00 | 0.03 | 0.02 | 93 | 1020.8 |
| 20260903100037 | 67 | 231 | 13.0 | 18.0 | 0.00 | 0.03 | 0.02 | 93 | 1021.1 |
| 20260903094539 | 67 | 229 | 15.0 | 20.0 | 0.00 | 0.04 | 0.02 | 93 | 1021.0 |
| 20260903093039 | 66 | 238 | 15.0 | 22.0 | 0.00 | 0.04 | 0.02 | 95 | 1020.8 |
| 20260903091530 | 66 | 243 | 13.0 | 19.0 | 0.00 | 0.04 | 0.02 | 95 | 1020.8 |
| 20260903090028 | 66 | 238 | 14.0 | 20.0 | 0.00 | 0.04 | 0.02 | 95 | 1020.7 |
| 20260903084532 | 66 | 243 | 14.0 | 21.0 | 0.00 | 0.04 | 0.02 | 95 | 1020.8 |
| 20260903083028 | 66 | 229 | 15.0 | 21.0 | 0.00 | 0.04 | 0.02 | 95 | 1021.0 |
| 20260903081524 | 65 | 236 | 16.0 | 21.0 | 0.00 | 0.04 | 0.02 | 95 | 1020.8 |
| 20260903080037 | 65 | 229 | 14.0 | 20.0 | 0.00 | 0.04 | 0.02 | 95 | 1020.7 |
| 20260903074521 | 64 | 233 | 13.0 | 18.0 | 0.00 | 0.04 | 0.02 | 95 | 1020.7 |
| 20260903073023 | 64 | 177 | 11.0 | 18.0 | 0.00 | 0.04 | 0.02 | 95 | 1020.5 |
| 20260903071518 | 65 | 222 | 12.0 | 19.0 | 0.00 | 0.04 | 0.02 | 95 | 1020.3 |
| 20260903070018 | 64 | 226 | 13.0 | 20.0 | 0.00 | 0.04 | 0.02 | 95 | 1020.2 |
| 20260903064514 | 64 | 233 | 12.0 | 17.0 | 0.00 | 0.06 | 0.02 | 95 | 1020.1 |
| 20260903063012 | 64 | 224 | 14.0 | 18.0 | 0.00 | 0.06 | 0.02 | 95 | 1020.1 |
| 20260903061514 | 64 | 229 | 15.0 | 20.0 | 0.01 | 0.06 | 0.02 | 95 | 1020.1 |
| 20260903060010 | 64 | 238 | 15.0 | 20.0 | 0.01 | 0.06 | 0.02 | 95 | 1019.9 |
| 20260903054511 | 64 | 231 | 15.0 | 19.0 | 0.01 | 0.06 | 0.02 | 95 | 1019.9 |
| 20260903053007 | 64 | 233 | 14.0 | 17.0 | 0.01 | 0.06 | 0.02 | 95 | 1019.8 |
| 20260903051507 | 64 | 245 | 14.0 | 19.0 | 0.00 | 0.05 | 0.02 | 95 | 1019.8 |
| 20260903050012 | 64 | 233 | 14.0 | 19.0 | 0.00 | 0.05 | 0.02 | 95 | 1019.8 |